SL-14 R/B, 23005

Orbit data source: Space-Track

SL-14 R/B, 23005 is space debris in LEO originally from a launch on Sat, 12 Feb 1994 UTC launched from the Plesetsk Missile And Space Complex (PKMTR). Debris objects in space refer to the collection of defunct objects orbiting the Earth. Examples of debris include non-operational satellites, rocket bodies, and fragments generated from explosions, collisions, or faulty payload assembly.

Loading next visibility...
Identifier
23005, 1994-011G
Orbit
LEO
Country
Flag of CISCIS
Related business
Manufacturer
Yuzhnoe
Mission
Spacecraft
Bus & Motor
S5M, Unknown motor
Mass
1,600 kg wet, 1,600 kg dry
Launch date (UTC)
1994-02-12 (32 years ago)
Launch vehicle
Unknown
Launch site
Plesetsk Missile And Space Complex (PKMTR)
Object type
Payload
Rocket body
Debris
Shape & HBR
Cyl, 1.4 m
Radar Cross Section
7.351 m², Large (>1 m²)

Expand to show TLE details & history
Last TLE update: 11 hours ago

TLE from 11 hours ago
0 SL-14 R/B
1 23005U 94011G   25292.76747023  .00000014  00000-0  23678-4 0  9996
2 23005  82.5801 214.2914 0040239 292.3246  81.4143 12.55220800451595
Epoch: 2025-10-19T18:25Z
TLE epoch observation values (Epoch: 2025-10-19T18:25:09.427Z)
Latitude
14.04525°
Longitude
-88.61949°
Altitude
1,440.159 km
Speed
7.145 km/s
True Right ascension
14h 24m 35s
True Declination
13° 58' 18"
Sunlit
Object was in daylight at epoch
Visualization orbit readout
Latitude
Unknown
Longitude
Unknown
Altitude
Unknown
Speed
Unknown
Apparent Right ascension
Unknown
Apparent Declination
Unknown
Sunlit
N/A
Visualization observer readout
Local Sidereal Time
00:26:06
Azimuth
Unknown
Elevation
Unknown
Doppler factor
Unknown
Orbital elements
Apogee altitude
1,471.524 km
Perigee altitude
1,408.604 km
Semi-major axis
7,818.201 km
Eccentricity
0.00402
Inclination
82.5801°
RAAN
214.2914°
Arg. of periapsis
292.3246°
True anomaly
81.87058°
Mean anomaly
81.4143°
Eccentric anomaly
81.6424°
Mean motion
3.13966 °/min
Orbital period
114.66 mins
BSTAR
0.000023678
Loading maneuver chart data...
Computing Atmospheric mass density...
Loading historical data...
Loading historical data...
Loading historical data...
Loading historical data...
Loading historical data...
Loading historical data...
Loading historical data...

Documentation

Showing up to 5 results
|